SL-16 DEB, 22600

Orbit data source: Space-Track

SL-16 DEB, 22600 is space debris in LEO originally from a launch on Fri, 26 Mar 1993 UTC launched from the Tyuratam Missile And Space Complex (TTMTR). Debris objects in space refer to the collection of defunct objects orbiting the Earth. Examples of debris include non-operational satellites, rocket bodies, and fragments generated from explosions, collisions, or faulty payload assembly.

Loading next visibility...
Identifier
22600, 1993-016J
Orbit
LEO
Country
Flag of CISCIS
Related business
Manufacturer
Unknown
Mission
Spacecraft
Bus & Motor
Unknown
Mass
Unknown
Launch date (UTC)
1993-03-26 (33 years ago)
Launch vehicle
Unknown
Launch site
Tyuratam Missile And Space Complex (TTMTR)
Object type
Payload
Rocket body
Debris
Shape & HBR
Unknown shape, 0.3 m
Radar Cross Section
Medium (>0.1 m² and <1 m²)

Expand to show TLE details & history
Last TLE update: 12 hours ago

TLE from 12 hours ago
0 SL-16 DEB
1 22600U 93016J   26264.17476612 -.00000001  00000-0  35503-4 0  9995
2 22600  70.9161 335.1406 0156760  75.1958 314.7542 13.82517133688921
Epoch: 2026-09-21T04:11Z
TLE epoch observation values (Epoch: 2026-09-21T04:11:39.792Z)
Latitude
26.99737°
Longitude
-77.73576°
Altitude
877.696 km
Speed
7.456 km/s
True Right ascension
23h 00m 57s
True Declination
26° 51' 39"
Sunlit
Object was in full shadow at epoch
Visualization orbit readout
Latitude
Unknown
Longitude
Unknown
Altitude
Unknown
Speed
Unknown
Apparent Right ascension
Unknown
Apparent Declination
Unknown
Sunlit
N/A
Visualization observer readout
Local Sidereal Time
09:14:15
Azimuth
Unknown
Elevation
Unknown
Doppler factor
Unknown
Orbital elements
Apogee altitude
1,067.859 km
Perigee altitude
838.015 km
Semi-major axis
7,331.074 km
Eccentricity
0.01568
Inclination
70.9161°
RAAN
335.1406°
Arg. of periapsis
75.1958°
True anomaly
313.46084°
Mean anomaly
314.7542°
Eccentric anomaly
314.1093°
Mean motion
3.45774 °/min
Orbital period
104.11 mins
BSTAR
0.000035503
Loading maneuver chart data...
Computing Atmospheric mass density...
Loading historical data...
Loading historical data...
Loading historical data...
Loading historical data...
Loading historical data...
Loading historical data...
Loading historical data...

Documentation

Showing up to 5 results
|